• In Deutschland
  • Länderverzeichnis
  • Für 7 Tage
  • Wassertemperatur
  • Satellitenkarten
  • Wetterkarte
  • Widgets
  • user-avatar
    Anmelden

    Stündliche Wetter Utersum

    Heute, 13 Dezember, Mittwoch

    Zeit Temperatur Niederschläge Wind Luftdruck Luftfeuchtigkeit
    00:00 -1°C° 0 mm 11 m/S 754 mmHg 84%
    01:00 -1°C° 0 mm 12 m/S 754 mmHg 84%
    02:00 -1°C° 0 mm 12 m/S 754 mmHg 84%
    03:00 -1°C° 0 mm 12 m/S 753 mmHg 85%
    04:00 -2°C° 0 mm 12 m/S 753 mmHg 85%
    05:00 -2°C° 0 mm 12 m/S 752 mmHg 85%
    06:00 -2°C° 0 mm 12 m/S 751 mmHg 85%
    07:00 -2°C° 0 mm 12 m/S 751 mmHg 88%
    08:00 -2°C° 0,4 mm 13 m/S 750 mmHg 88%
    09:00 -2°C° 0,4 mm 13 m/S 749 mmHg 88%
    10:00 -2°C° 0,4 mm 14 m/S 749 mmHg 88%
    11:00 -1°C° 0,5 mm 14 m/S 748 mmHg 88%
    12:00 -1°C° 0,5 mm 14 m/S 747 mmHg 89%
    13:00 -1°C° 0,5 mm 13 m/S 746 mmHg 89%
    14:00 -1°C° 0,9 mm 13 m/S 745 mmHg 90%
    15:00 -1°C° 0,9 mm 12 m/S 744 mmHg 91%
    16:00 -1°C° 0,9 mm 11 m/S 743 mmHg 91%
    17:00 0°C° 0,5 mm 10 m/S 742 mmHg 92%
    18:00 +1°C° 0,5 mm 9 m/S 741 mmHg 94%
    19:00 +1°C° 0,5 mm 8 m/S 740 mmHg 95%
    20:00 +1°C° 0,1 mm 8 m/S 738 mmHg 95%
    21:00 +1°C° 0,1 mm 9 m/S 737 mmHg 94%
    22:00 +1°C° 0,1 mm 9 m/S 736 mmHg 94%
    23:00 +1°C° 0,8 mm 9 m/S 735 mmHg 94%

    Morgen, 14 Dezember, Donnerstag

    Zeit Temperatur Niederschläge Wind Luftdruck Luftfeuchtigkeit
    00:00 +1°C° 0,8 mm 9 m/S 734 mmHg 94%
    01:00 +1°C° 0,8 mm 9 m/S 733 mmHg 94%
    02:00 +1°C° 0,9 mm 10 m/S 733 mmHg 88%
    03:00 +2°C° 0,9 mm 11 m/S 733 mmHg 81%
    04:00 +1°C° 0,9 mm 13 m/S 733 mmHg 75%
    05:00 +2°C° 0,1 mm 12 m/S 734 mmHg 74%
    06:00 0°C° 0,1 mm 12 m/S 735 mmHg 73%
    07:00 +1°C° 0,1 mm 11 m/S 735 mmHg 72%
    08:00 +1°C° 0,2 mm 11 m/S 736 mmHg 72%
    09:00 +1°C° 0,2 mm 11 m/S 736 mmHg 72%
    10:00 +1°C° 0,2 mm 11 m/S 737 mmHg 71%
    11:00 +1°C° 0,3 mm 11 m/S 737 mmHg 70%
    12:00 +1°C° 0,3 mm 11 m/S 737 mmHg 69%
    13:00 +2°C° 0,3 mm 12 m/S 737 mmHg 68%
    14:00 +2°C° 0,4 mm 12 m/S 737 mmHg 70%
    15:00 0°C° 0,4 mm 12 m/S 737 mmHg 71%
    16:00 0°C° 0,4 mm 12 m/S 737 mmHg 73%
    17:00 +1°C° 0,4 mm 11 m/S 737 mmHg 74%
    18:00 +1°C° 0,4 mm 11 m/S 737 mmHg 76%
    19:00 +1°C° 0,4 mm 10 m/S 737 mmHg 77%
    20:00 +1°C° 0,5 mm 10 m/S 737 mmHg 78%
    21:00 +1°C° 0,5 mm 10 m/S 737 mmHg 78%
    22:00 +1°C° 0,5 mm 10 m/S 737 mmHg 79%
    23:00 +1°C° 0,2 mm 10 m/S 737 mmHg 79%

    übermorgen, 15 Dezember, Freitag

    Zeit Temperatur Niederschläge Wind Luftdruck Luftfeuchtigkeit
    00:00 +1°C° 0,2 mm 9 m/S 738 mmHg 80%
    01:00 +1°C° 0,2 mm 9 m/S 738 mmHg 81%
    02:00 +1°C° 0,1 mm 9 m/S 738 mmHg 81%
    03:00 +1°C° 0,1 mm 8 m/S 738 mmHg 82%
    04:00 +1°C° 0,1 mm 8 m/S 738 mmHg 82%
    05:00 +1°C° 0,2 mm 8 m/S 739 mmHg 83%
    06:00 +2°C° 0,2 mm 7 m/S 739 mmHg 84%
    07:00 +2°C° 0,2 mm 7 m/S 740 mmHg 85%
    08:00 +2°C° 0,2 mm 7 m/S 740 mmHg 85%
    09:00 +2°C° 0,2 mm 6 m/S 741 mmHg 86%
    10:00 +2°C° 0,2 mm 6 m/S 742 mmHg 86%
    11:00 +3°C° 0,1 mm 6 m/S 742 mmHg 85%
    12:00 +3°C° 0,1 mm 7 m/S 742 mmHg 83%
    13:00 +4°C° 0,1 mm 7 m/S 743 mmHg 82%
    14:00 +3°C° 0,1 mm 7 m/S 743 mmHg 81%
    15:00 +3°C° 0,1 mm 7 m/S 743 mmHg 80%
    16:00 +1°C° 0,1 mm 8 m/S 744 mmHg 80%
    17:00 +2°C° 0 mm 7 m/S 744 mmHg 79%
    18:00 +2°C° 0 mm 7 m/S 745 mmHg 78%
    19:00 +2°C° 0 mm 7 m/S 745 mmHg 77%
    20:00 +2°C° 0,1 mm 7 m/S 746 mmHg 77%
    21:00 0°C° 0,1 mm 8 m/S 746 mmHg 77%
    22:00 0°C° 0,1 mm 8 m/S 746 mmHg 78%
    23:00 0°C° 0,1 mm 8 m/S 746 mmHg 76%

    16 Dezember, Samstag

    Zeit Temperatur Niederschläge Wind Luftdruck Luftfeuchtigkeit
    00:00 0°C° 0,1 mm 8 m/S 746 mmHg 75%
    01:00 0°C° 0,1 mm 9 m/S 746 mmHg 74%
    02:00 0°C° 0,2 mm 9 m/S 746 mmHg 74%
    03:00 0°C° 0,2 mm 9 m/S 746 mmHg 74%
    04:00 0°C° 0,2 mm 9 m/S 747 mmHg 74%
    05:00 0°C° 0,2 mm 10 m/S 747 mmHg 74%
    06:00 0°C° 0,2 mm 10 m/S 747 mmHg 75%
    07:00 0°C° 0,2 mm 10 m/S 748 mmHg 75%
    08:00 -1°C° 0,1 mm 9 m/S 748 mmHg 77%
    09:00 -1°C° 0,1 mm 8 m/S 749 mmHg 78%
    10:00 -1°C° 0,1 mm 8 m/S 749 mmHg 80%
    11:00 0°C° 0,1 mm 8 m/S 750 mmHg 78%
    12:00 0°C° 0,1 mm 8 m/S 750 mmHg 76%
    13:00 +1°C° 0,1 mm 8 m/S 751 mmHg 74%
    14:00 +1°C° 0,2 mm 9 m/S 751 mmHg 74%
    15:00 +1°C° 0,2 mm 10 m/S 752 mmHg 74%
    16:00 0°C° 0,2 mm 10 m/S 752 mmHg 73%
    17:00 0°C° 0,2 mm 10 m/S 753 mmHg 74%
    18:00 0°C° 0,2 mm 10 m/S 753 mmHg 74%
    19:00 0°C° 0,2 mm 10 m/S 754 mmHg 75%
    20:00 0°C° 0,2 mm 10 m/S 754 mmHg 75%
    21:00 0°C° 0,2 mm 10 m/S 755 mmHg 76%
    22:00 0°C° 0,2 mm 10 m/S 755 mmHg 76%
    23:00 0°C° 0,1 mm 10 m/S 756 mmHg 77%

    17 Dezember, Sonntag

    Zeit Temperatur Niederschläge Wind Luftdruck Luftfeuchtigkeit
    00:00 0°C° 0,1 mm 9 m/S 756 mmHg 77%
    01:00 -1°C° 0,1 mm 9 m/S 757 mmHg 77%
    02:00 -1°C° 0 mm 8 m/S 757 mmHg 77%
    03:00 -2°C° 0 mm 8 m/S 758 mmHg 78%
    04:00 -2°C° 0 mm 7 m/S 758 mmHg 78%
    05:00 -2°C° 0 mm 7 m/S 759 mmHg 80%
    06:00 -2°C° 0 mm 6 m/S 760 mmHg 81%
    07:00 -2°C° 0 mm 6 m/S 760 mmHg 83%
    08:00 -2°C° 0 mm 6 m/S 761 mmHg 83%
    09:00 -1°C° 0 mm 5 m/S 762 mmHg 83%
    10:00 -1°C° 0 mm 5 m/S 763 mmHg 82%
    11:00 0°C° 0 mm 5 m/S 763 mmHg 80%
    12:00 0°C° 0 mm 5 m/S 764 mmHg 78%
    13:00 +1°C° 0 mm 5 m/S 764 mmHg 75%
    14:00 0°C° 0 mm 4 m/S 764 mmHg 77%
    15:00 0°C° 0 mm 4 m/S 764 mmHg 79%
    16:00 -1°C° 0 mm 4 m/S 765 mmHg 80%
    17:00 -1°C° 0 mm 4 m/S 765 mmHg 81%
    18:00 -1°C° 0 mm 4 m/S 765 mmHg 81%
    19:00 -1°C° 0 mm 4 m/S 765 mmHg 82%
    20:00 0°C° 0 mm 4 m/S 765 mmHg 82%
    21:00 0°C° 0 mm 4 m/S 765 mmHg 83%
    22:00 +1°C° 0 mm 5 m/S 765 mmHg 83%
    23:00 +1°C° 0,3 mm 6 m/S 764 mmHg 84%

    18 Dezember, Montag

    Zeit Temperatur Niederschläge Wind Luftdruck Luftfeuchtigkeit
    00:00 0°C° 0,3 mm 7 m/S 764 mmHg 85%
    01:00 0°C° 0,3 mm 8 m/S 763 mmHg 86%
    02:00 0°C° 0,9 mm 8 m/S 762 mmHg 86%
    03:00 0°C° 0,9 mm 9 m/S 761 mmHg 86%
    04:00 +1°C° 0,9 mm 9 m/S 761 mmHg 86%
    05:00 +1°C° 0,6 mm 9 m/S 760 mmHg 88%
    06:00 +1°C° 0,6 mm 8 m/S 760 mmHg 90%
    07:00 +1°C° 0,6 mm 8 m/S 759 mmHg 91%
    08:00 +2°C° 0,3 mm 7 m/S 759 mmHg 93%
    09:00 +2°C° 0,3 mm 7 m/S 760 mmHg 94%
    10:00 +2°C° 0,3 mm 7 m/S 760 mmHg 95%
    11:00 +2°C° 0 mm 7 m/S 760 mmHg 96%
    12:00 +2°C° 0 mm 7 m/S 761 mmHg 96%
    13:00 +2°C° 0 mm 6 m/S 761 mmHg 96%
    14:00 +2°C° 0 mm 6 m/S 762 mmHg 96%
    15:00 +2°C° 0 mm 5 m/S 762 mmHg 96%
    16:00 +1°C° 0 mm 5 m/S 763 mmHg 96%
    17:00 +1°C° 0 mm 5 m/S 764 mmHg 95%
    18:00 +1°C° 0 mm 5 m/S 765 mmHg 94%
    19:00 +1°C° 0 mm 5 m/S 766 mmHg 93%
    20:00 +1°C° 0 mm 5 m/S 766 mmHg 92%
    21:00 +1°C° 0 mm 4 m/S 767 mmHg 92%
    22:00 +1°C° 0 mm 4 m/S 768 mmHg 92%
    23:00 +2°C° 0 mm 3 m/S 769 mmHg 92%
    Mehr zeigen